Location: Maiden_LMO
(35.5760°N, 81.2120°W)
Time: 23:19:49
(UTC-05:00)

ADEOS II - Visible Passes

Search period start: 03 March 2015 00:00
Search period end: 13 March 2015 01:00
Orbit: 801 x 802 km, 98.3° (Epoch: 02 March)

Date Brightness Start Highest point End Pass type
(mag) Time Alt. Az. Time Alt. Az. Time Alt. Az.
03 Mar 5.1 04:48:21 10° ENE 04:51:03 15° E 04:54:03 10° SE visible
03 Mar 2.2 06:26:07 10° N 06:31:16 57° WNW 06:36:24 10° SSW visible
04 Mar 2.3 05:59:54 10° NNE 06:05:11 80° E 06:10:27 10° S visible
05 Mar 3.4 05:33:59 10° NNE 05:38:59 44° E 05:44:00 10° S visible
06 Mar 4.4 05:08:29 10° NE 05:12:40 24° E 05:16:57 10° SSE visible
07 Mar 5.2 04:43:56 10° ENE 04:46:11 13° E 04:48:46 10° ESE visible
07 Mar 2.1 06:21:17 10° N 06:26:29 63° WNW 06:31:40 10° SSW visible
08 Mar 2.4 06:55:06 10° NNE 07:00:22 73° E 07:05:37 10° S visible
09 Mar 3.6 06:29:14 10° NNE 06:34:09 40° E 06:39:05 10° SSE visible
10 Mar 4.6 06:03:50 10° NE 06:07:48 22° E 06:11:54 10° SE visible
11 Mar 5.2 05:39:38 10° ENE 05:41:18 12° E 05:43:20 10° ESE visible
11 Mar 2.1 07:16:25 10° N 07:21:40 69° WNW 07:26:54 10° SSW visible
12 Mar 2.6 06:50:18 10° NNE 06:55:32 66° E 07:00:46 10° S visible
